This demonstration page uses our WeatherBlox Daily Observations layout. Learn more.

Left ArrowRight Arrow

39.92423, -83.80882

Hourly Observations for December 30, 2015

Temp ( °F °C ) Dew Point ( °F °C ) Humidity (%) Winds ( mph kmh ) Pressure ( in mb ) Visibility ( mi km ) Precip ( " mm )
12:56 am 00:56 Cloudy 36 2.2 32 0 86 86 WNW 6 9 30.21 1023 10 16.0934 0 0
1:56 am 01:56 Cloudy 35 1.6 32 0 89 89 WNW 5 7 30.23 1024 10 16.0934 0 0
2:56 am 02:56 Cloudy 35 1.6 32 0 89 89 NNW 3 6 30.23 1024 10 16.0934 0 0
3:56 am 03:56 Cloudy 35 1.6 33 0.5 93 93 ENE 3 6 30.22 1024 10 16.0934 0 0
4:56 am 04:56 Cloudy 36 2.2 33 0.5 89 89 Calm 30.23 1024 10 16.0934 0 0
5:56 am 05:56 Cloudy 36 2.2 33 0.5 89 89 Calm 30.23 1024 10 16.0934 0 0
6:56 am 06:56 Cloudy 36 2.2 34 1.1 93 93 Calm 30.21 1023 10 16.0934 0 0
7:56 am 07:56 Cloudy 36 2.2 34 1.1 93 93 Calm 30.2 1023 10 16.0934 0 0
8:44 am 08:44 Cloudy 37 3 36 2 93 93 E 5 7 30.21 1023 10 16.0934 0 0
8:56 am 08:56 Cloudy 37 2.7 34 1.1 89 89 E 3 6 30.18 1022 10 16.0934 0 0
9:56 am 09:56 Cloudy 38 3.3 35 1.6 89 89 Calm 30.2 1023 10 16.0934 0 0
10:56 am 10:56 Cloudy 38 3.3 35 1.6 89 89 Calm 30.21 1023 10 16.0934 0 0
11:12 am 11:12 Cloudy 37 3 36 2 93 93 SSE 3 6 30.24 1024 10 16.0934 0 0
11:56 am 11:56 Cloudy 39 3.8 36 2.2 89 89 WSW 6 9 30.19 1022 10 16.0934 0 0
12:56 pm 12:56 Cloudy 39 3.8 37 2.7 93 93 WSW 9 15 30.16 1022 10 16.0934 0 0
1:06 pm 13:06 Cloudy 39 4 36 2 87 87 W 8 13 30.21 1023 10 16.0934 0 0
1:15 pm 13:15 Cloudy 39 4 36 2 87 87 W 8 13 30.21 1023 10 16.0934 0 0
1:56 pm 13:56 Cloudy 39 3.8 36 2.2 89 89 W 5 7 30.14 1021 10 16.0934 0 0
2:56 pm 14:56 Cloudy 39 3.8 37 2.7 93 93 WNW 9 15 30.14 1021 10 16.0934 0 0
3:15 pm 15:15 Cloudy 37 3 36 2 93 93 WNW 9 15 30.18 1022 10 16.0934 0 0
3:56 pm 15:56 Cloudy 38 3.3 35 1.6 89 89 W 14 22 30.16 1021 10 16.0934 0 0
4:56 pm 16:56 Cloudy 38 3.3 34 1.1 86 86 WSW 13 20 30.18 1022 10 16.0934 0 0
5:56 pm 17:56 Cloudy 37 2.7 33 0.5 86 86 W 8 13 30.21 1023 10 16.0934 0 0
6:56 pm 18:56 Cloudy 36 2.2 32 0 86 86 W 9 15 30.23 1024 10 16.0934 0 0
7:56 pm 19:56 Cloudy 35 1.6 32 0 89 89 WSW 10 17 30.24 1024 10 16.0934 0 0
8:56 pm 20:56 Cloudy 35 1.6 31 -0.5 86 86 W 9 15 30.25 1024 10 16.0934 0 0
9:09 pm 21:09 Cloudy 36 2 30 -1 81 81 W 12 19 30.27 1025 10 16.0934 0 0
9:56 pm 21:56 Cloudy 35 1.6 31 -0.5 86 86 WSW 12 19 30.24 1024 10 16.0934 0 0
10:56 pm 22:56 Cloudy 34 1.1 30 -1.1 85 85 WNW 9 15 30.23 1024 10 16.0934 0 0
11:56 pm 23:56 Cloudy 33 0.5 30 -1.1 89 89 WNW 9 15 30.24 1024 10 16.0934 0 0

Powered by AerisWeather